Weather in Bekovo

Russia / Penza Oblast     52°27′32″N   43°42′27″E
temp.,
°C
wind,
m/s
gust,
m/s
humid.,
%
clouds,
%
prec.,
mm/h
press.,
hPa
HPBL,
m
3 march, wed
wed300:00−1nw4896100 0.1 1006235
03:00−5nw489574 0.2 1008150
06:00−5nw499662 0.0 1008294
09:00−3nw5109380 0.2 1010751
12:00−3nnw698796 0.1 1011783
15:00−4nw6108794 0.1 1013696
18:00−4nw6118897 0.1 1014813
21:00−8w5119275 0.1 1015235
4 march, thu
thu400:00−7w5129534 0.0 1014290
03:00−4wsw7139466 0.1 1012550
06:00−3wsw71492100 0.1 1010692
09:00−2wsw91592100 0.1 1008725
12:000wsw91794100 0.3 1007831
15:00+1wsw91688100 0.3 1006867
18:000wsw71686100 0.0 1004741
21:00−1wsw61585100 0.0 1004580
5 march, fri
fri500:00+1sw61393100 0.0 1002618
03:00+1wsw71499100 0.5 1001577
06:00+1wsw81499100 0.4 1000630
09:00+1wsw71298100 0.9 1001640
12:000w71299100 0.1 1004742
15:00−1nw4692100 0.3 1007568
18:00−4n3592100 0.1 1009120
21:00−6nne3493100 0.1 101293
6 march, sat
sat600:00−6ne3595100 0.0 1012159
03:00−7ne3592100 0.0 1012170
06:00−11nne349079 0.0 101258
09:00−9n238987 0.0 1013125
12:00−7nw238474 0.0 1014305
15:00−6nw578961 0.0 1014645
18:00−9wnw469169 0.0 1015112
21:00−11nw349334 0.0 101782
7 march, sun
sun700:00−13nw23920 0.0 101721
03:00−13wsw22920 0.0 101720
06:00−13ssw34950 0.0 101764
09:00−9sw6119415 0.0 1015438
12:00−6sw81385100 0.1 1012963
15:00−5sw91579100 0.1 10091078
18:00−4sw91876100 0.0 10071040
21:00−3sw101877100 0.0 10041041